Location: *
(35.8942°N, 23.3025°E)
Time: 22:28:42
(UTC+00:00)

Cosmos 1151 Rocket - Pass Details

Date: 21 September 2021
Orbit: 591 x 617 km, 82.5° (Epoch: 22 October)

Event Time Altitude Azimuth Distance (km) Brightness Sun altitude
Exits shadow 02:26:06 44° 320° (NW) 850 3.5 -22.3°
Drops below altitude 10° 02:29:30 10° 356° (N) 1,977 5.8 -21.6°
Sets 02:31:47 0° 2° (N) 2,882 6.7 -21.2°
